20040326,000003,259193,30.838240,-121.608040,14.944,32.912,NaN,NaN
20040326,000033,259223,30.838200,-121.608160,14.941,32.904,NaN,NaN
20040326,000103,259253,30.838140,-121.608330,14.945,32.887,NaN,NaN
20040326,000133,259283,30.838090,-121.608530,14.945,32.885,NaN,NaN
20040326,000202,259312,30.838050,-121.608690,14.945,32.893,NaN,NaN
20040326,000233,259342,30.838030,-121.608860,14.947,32.883,NaN,NaN
20040326,000303,259373,30.837990,-121.609030,14.953,32.894,NaN,NaN
20040326,000333,259403,30.837990,-121.609190,14.953,32.900,NaN,NaN
20040326,000404,259434,30.837990,-121.609390,14.951,32.905,NaN,NaN
20040326,000433,259463,30.837980,-121.609600,14.947,32.906,NaN,NaN
20040326,000503,259492,30.837990,-121.609820,14.947,32.904,NaN,NaN
20040326,000533,259523,30.837980,-121.610040,14.945,32.900,NaN,NaN
20040326,000604,259554,30.838000,-121.610240,14.944,32.902,NaN,NaN
20040326,000633,259583,30.838030,-121.610430,14.956,32.903,NaN,NaN
20040326,000704,259614,30.838020,-121.610650,14.959,32.904,NaN,NaN
20040326,000734,259644,30.838030,-121.610880,14.960,32.903,NaN,NaN
20040326,000804,259674,30.838040,-121.611100,14.958,32.901,NaN,NaN
20040326,000834,259704,30.838050,-121.611320,14.949,32.891,NaN,NaN
20040326,000903,259733,30.838050,-121.611520,14.929,32.881,NaN,NaN
20040326,000934,259764,30.838060,-121.611740,14.909,32.869,NaN,NaN
20040326,001004,259794,30.838070,-121.611960,14.885,32.857,NaN,NaN
20040326,001033,259823,30.838090,-121.612180,14.824,32.854,NaN,NaN
20040326,001104,259854,30.838100,-121.612410,14.762,32.849,NaN,NaN
20040326,001134,259884,30.838100,-121.612640,14.734,32.846,NaN,NaN
20040326,001204,259913,30.838130,-121.612840,14.710,32.860,NaN,NaN
20040326,001233,259943,30.838140,-121.613050,14.695,32.870,NaN,NaN
20040326,001304,259974,30.838140,-121.613260,14.683,32.882,NaN,NaN
20040326,001333,260002,30.838140,-121.613470,14.678,32.891,NaN,NaN
20040326,001404,260034,30.838150,-121.613690,14.674,32.890,NaN,NaN
20040326,001434,260064,30.838160,-121.613920,14.665,32.892,NaN,NaN
20040326,001504,260093,30.838160,-121.614160,14.668,32.896,NaN,NaN
20040326,001534,260124,30.838160,-121.614390,14.659,32.898,NaN,NaN
20040326,001604,260154,30.838180,-121.614590,14.646,32.901,NaN,NaN
20040326,001634,260184,30.838180,-121.614770,14.643,32.904,NaN,NaN
20040326,001704,260214,30.838170,-121.614980,14.639,32.904,NaN,NaN
20040326,001734,260244,30.838160,-121.615180,14.639,32.902,NaN,NaN
20040326,001804,260274,30.838160,-121.615380,14.622,32.903,NaN,NaN
20040326,001834,260304,30.838160,-121.615600,14.622,32.896,NaN,NaN
20040326,001904,260334,30.838160,-121.615820,14.626,32.898,NaN,NaN
20040326,001934,260364,30.838170,-121.616050,14.630,32.904,NaN,NaN
20040326,002004,260394,30.838170,-121.616310,14.626,32.904,NaN,NaN
20040326,002034,260423,30.838170,-121.616660,14.621,32.904,NaN,NaN
20040326,002104,260454,30.838140,-121.617050,14.619,32.907,NaN,NaN
20040326,002134,260484,30.838090,-121.617460,14.634,32.906,NaN,NaN
20040326,002204,260514,30.838050,-121.617890,14.631,32.908,NaN,NaN
20040326,002233,260543,30.838000,-121.618300,14.632,32.910,NaN,NaN
20040326,002303,260573,30.837930,-121.618750,14.638,32.910,NaN,NaN
20040326,002333,260603,30.837840,-121.619190,14.644,32.911,NaN,NaN
20040326,002403,260633,30.837780,-121.619620,14.650,32.911,NaN,NaN
20040326,002433,260663,30.837710,-121.620050,14.674,32.908,NaN,NaN
20040326,002503,260692,30.837640,-121.620490,14.671,32.910,NaN,NaN
20040326,002533,260723,30.837530,-121.620920,14.674,32.912,NaN,NaN
20040326,002603,260753,30.837450,-121.621320,14.688,32.913,NaN,NaN
20040326,002633,260783,30.837370,-121.621670,14.702,32.913,NaN,NaN
20040326,002703,260813,30.837300,-121.622020,14.710,32.913,NaN,NaN
20040326,002733,260842,30.837190,-121.622380,14.704,32.912,NaN,NaN
20040326,002803,260873,30.837080,-121.622680,14.715,32.913,NaN,NaN
20040326,002833,260903,30.836940,-121.622920,14.729,32.914,NaN,NaN
20040326,002903,260933,30.836810,-121.623140,14.738,32.912,NaN,NaN
20040326,002933,260963,30.836650,-121.623360,14.736,32.912,NaN,NaN
20040326,003003,260993,30.836540,-121.623570,14.738,32.912,NaN,NaN
20040326,003033,261022,30.836410,-121.623800,14.747,32.912,NaN,NaN
20040326,003103,261053,30.836250,-121.624020,14.755,32.912,NaN,NaN
20040326,003133,261083,30.836120,-121.624230,14.757,32.913,NaN,NaN
20040326,003203,261113,30.835970,-121.624450,14.764,32.913,NaN,NaN
20040326,003233,261143,30.835820,-121.624670,14.765,32.914,NaN,NaN
20040326,003303,261173,30.835670,-121.624890,14.763,32.913,NaN,NaN
20040326,003333,261203,30.835530,-121.625120,14.763,32.903,NaN,NaN
20040326,003403,261233,30.835370,-121.625340,14.773,32.913,NaN,NaN
20040326,003433,261263,30.835220,-121.625550,14.774,32.912,NaN,NaN
20040326,003503,261293,30.835080,-121.625770,14.775,32.912,NaN,NaN
20040326,003533,261323,30.834930,-121.626000,14.774,32.913,NaN,NaN
20040326,003603,261352,30.834790,-121.626220,14.766,32.914,NaN,NaN
20040326,003633,261383,30.834620,-121.626460,14.771,32.914,NaN,NaN
20040326,003703,261413,30.834480,-121.626700,14.777,32.915,NaN,NaN
20040326,003733,261443,30.834330,-121.626950,14.779,32.915,NaN,NaN
20040326,003803,261473,30.834170,-121.627200,14.795,32.915,NaN,NaN
20040326,003833,261503,30.834040,-121.627430,14.819,32.915,NaN,NaN
20040326,003903,261532,30.833910,-121.627660,14.841,32.906,NaN,NaN
20040326,003933,261563,30.833760,-121.627910,14.849,32.915,NaN,NaN
20040326,004003,261593,30.833610,-121.628190,14.857,32.915,NaN,NaN
20040326,004033,261623,30.833460,-121.628480,14.863,32.915,NaN,NaN
20040326,004103,261653,30.833320,-121.628770,14.864,32.915,NaN,NaN
20040326,004133,261683,30.833200,-121.629040,14.872,32.915,NaN,NaN
20040326,004203,261713,30.833110,-121.629320,14.865,32.915,NaN,NaN
20040326,004233,261743,30.833020,-121.629590,14.870,32.915,NaN,NaN
20040326,004303,261773,30.832940,-121.629880,14.876,32.915,NaN,NaN
20040326,004333,261803,30.832920,-121.630170,14.884,32.915,NaN,NaN
20040326,004403,261833,30.832920,-121.630450,14.885,32.916,NaN,NaN
20040326,004433,261862,30.832930,-121.630720,14.887,32.915,NaN,NaN
20040326,004503,261893,30.832960,-121.630980,14.883,32.916,NaN,NaN
20040326,004533,261923,30.832980,-121.631280,14.885,32.916,NaN,NaN
20040326,004603,261953,30.832990,-121.631570,14.883,32.916,NaN,NaN
20040326,004633,261983,30.832980,-121.631860,14.891,32.916,NaN,NaN
20040326,004703,262013,30.832930,-121.632110,14.898,32.916,NaN,NaN
20040326,004733,262042,30.832860,-121.632290,14.896,32.917,NaN,NaN
20040326,004803,262073,30.832860,-121.632560,14.903,32.917,NaN,NaN
20040326,004833,262103,30.832910,-121.633100,14.900,32.917,NaN,NaN
20040326,004903,262133,30.832810,-121.633910,14.900,32.917,NaN,NaN
20040326,004933,262163,30.832360,-121.634900,14.899,32.917,NaN,NaN
20040326,005003,262192,30.831670,-121.635900,14.898,32.917,NaN,NaN
20040326,005033,262223,30.831020,-121.637000,14.896,32.917,NaN,NaN
20040326,005103,262253,30.830350,-121.638150,14.890,32.916,NaN,NaN
20040326,005133,262283,30.829660,-121.639370,14.889,32.917,NaN,NaN
20040326,005203,262313,30.828920,-121.640660,14.887,32.918,NaN,NaN
20040326,005233,262343,30.828150,-121.642000,14.877,32.918,NaN,NaN
20040326,005303,262372,30.827360,-121.643400,14.855,32.918,NaN,NaN
20040326,005333,262403,30.826570,-121.644840,14.832,32.917,NaN,NaN
20040326,005404,262434,30.825700,-121.646340,14.796,32.917,NaN,NaN
20040326,005434,262464,30.824890,-121.647840,14.780,32.918,NaN,NaN
20040326,005504,262494,30.824080,-121.649350,14.768,32.919,NaN,NaN
20040326,005534,262524,30.823250,-121.650830,14.775,32.919,NaN,NaN
20040326,005604,262554,30.822430,-121.652330,14.834,32.919,NaN,NaN
20040326,005634,262584,30.821570,-121.653820,14.868,32.920,NaN,NaN
20040326,005704,262613,30.820750,-121.655320,14.894,32.919,NaN,NaN
20040326,005734,262644,30.819900,-121.656820,14.909,32.918,NaN,NaN
20040326,005804,262674,30.819070,-121.658310,14.920,32.918,NaN,NaN
20040326,005834,262704,30.818250,-121.659830,14.918,32.917,NaN,NaN
20040326,005904,262734,30.817390,-121.661330,14.928,32.916,NaN,NaN
20040326,005935,262765,30.816540,-121.662910,14.924,32.918,NaN,NaN
20040326,010005,262795,30.815690,-121.664420,14.930,32.918,NaN,NaN
20040326,010035,262825,30.814850,-121.665940,14.949,32.919,NaN,NaN
20040326,010105,262855,30.813990,-121.667450,14.968,32.915,NaN,NaN
20040326,010135,262885,30.813160,-121.668980,14.951,32.919,NaN,NaN
20040326,010205,262915,30.812330,-121.670500,14.949,32.919,NaN,NaN
20040326,010235,262945,30.811470,-121.672010,14.955,32.920,NaN,NaN
20040326,010305,262975,30.810650,-121.673540,14.953,32.921,NaN,NaN
20040326,010335,263005,30.809810,-121.675050,14.958,32.922,NaN,NaN
20040326,010405,263034,30.808970,-121.676550,14.963,32.924,NaN,NaN
20040326,010434,263064,30.808150,-121.678000,14.971,32.925,NaN,NaN
20040326,010504,263094,30.807340,-121.679510,14.981,32.926,NaN,NaN
20040326,010535,263125,30.806460,-121.681060,14.991,32.929,NaN,NaN
20040326,010604,263154,30.805650,-121.682500,15.004,32.932,NaN,NaN
20040326,010634,263184,30.804790,-121.684060,15.017,32.934,NaN,NaN
20040326,010704,263214,30.803980,-121.685520,15.021,32.935,NaN,NaN
20040326,010734,263244,30.803160,-121.687030,15.019,32.936,NaN,NaN
20040326,010804,263274,30.802340,-121.688530,15.020,32.936,NaN,NaN
20040326,010834,263304,30.801510,-121.690030,15.022,32.938,NaN,NaN
20040326,010904,263334,30.800690,-121.691530,15.028,32.940,NaN,NaN
20040326,010934,263364,30.799870,-121.693020,15.040,32.943,NaN,NaN
20040326,011004,263394,30.799040,-121.694500,15.048,32.945,NaN,NaN
20040326,011034,263424,30.798200,-121.695990,15.065,32.946,NaN,NaN
20040326,011104,263453,30.797370,-121.697460,15.065,32.941,NaN,NaN
20040326,011134,263484,30.796520,-121.698910,15.054,32.930,NaN,NaN
20040326,011204,263514,30.795690,-121.700390,15.030,32.917,NaN,NaN
20040326,011234,263544,30.794850,-121.701870,15.015,32.907,NaN,NaN
20040326,011304,263574,30.794010,-121.703350,15.004,32.904,NaN,NaN
20040326,011335,263605,30.793150,-121.704870,15.002,32.908,NaN,NaN
20040326,011405,263635,30.792320,-121.706350,15.003,32.915,NaN,NaN
20040326,011435,263665,30.791470,-121.707810,15.009,32.923,NaN,NaN
20040326,011505,263695,30.790620,-121.709290,15.026,32.926,NaN,NaN
20040326,011535,263725,30.789780,-121.710760,15.027,32.935,NaN,NaN
20040326,011605,263755,30.788970,-121.712260,15.034,32.943,NaN,NaN
20040326,011635,263785,30.788120,-121.713730,15.056,32.949,NaN,NaN
20040326,011705,263815,30.787290,-121.715220,15.069,32.954,NaN,NaN
20040326,011735,263845,30.786470,-121.716700,15.086,32.958,NaN,NaN
20040326,011805,263874,30.785610,-121.718150,15.113,32.961,NaN,NaN
20040326,011835,263905,30.784780,-121.719620,15.141,32.963,NaN,NaN
20040326,011905,263935,30.783940,-121.721080,15.168,32.967,NaN,NaN
20040326,011935,263965,30.783110,-121.722550,15.201,32.973,NaN,NaN
20040326,012005,263995,30.782300,-121.724010,15.227,32.980,NaN,NaN
20040326,012035,264025,30.781460,-121.725490,15.259,32.981,NaN,NaN
20040326,012105,264055,30.780630,-121.726960,15.274,32.982,NaN,NaN
20040326,012135,264085,30.779800,-121.728440,15.287,32.981,NaN,NaN
20040326,012205,264115,30.778960,-121.729900,15.302,32.980,NaN,NaN
20040326,012235,264145,30.778120,-121.731370,15.305,32.979,NaN,NaN
20040326,012305,264175,30.777290,-121.732860,15.301,32.976,NaN,NaN
20040326,012335,264205,30.776440,-121.734310,15.287,32.974,NaN,NaN
20040326,012404,264234,30.775630,-121.735740,15.278,32.974,NaN,NaN
20040326,012434,264264,30.774810,-121.737220,15.274,32.973,NaN,NaN
20040326,012504,264294,30.773970,-121.738700,15.267,32.974,NaN,NaN
20040326,012534,264324,30.773120,-121.740180,15.269,32.974,NaN,NaN
20040326,012604,264354,30.772260,-121.741650,15.273,32.975,NaN,NaN
20040326,012634,264384,30.771410,-121.743120,15.275,32.976,NaN,NaN
20040326,012704,264414,30.770560,-121.744600,15.276,32.977,NaN,NaN
20040326,012734,264444,30.769720,-121.746080,15.276,32.978,NaN,NaN
20040326,012804,264473,30.768860,-121.747570,15.285,32.980,NaN,NaN
20040326,012834,264504,30.768010,-121.749060,15.299,32.981,NaN,NaN
20040326,012904,264534,30.767150,-121.750540,15.304,32.982,NaN,NaN
20040326,012935,264565,30.766250,-121.752080,15.318,32.982,NaN,NaN
20040326,013005,264595,30.765390,-121.753580,15.325,32.983,NaN,NaN
20040326,013035,264625,30.764530,-121.755070,15.338,32.985,NaN,NaN
20040326,013104,264654,30.763690,-121.756510,15.336,32.987,NaN,NaN
20040326,013135,264685,30.762780,-121.758020,15.339,32.988,NaN,NaN
20040326,013205,264714,30.761930,-121.759520,15.338,32.988,NaN,NaN
20040326,013235,264745,30.761060,-121.760980,15.343,32.990,NaN,NaN
20040326,013305,264775,30.760210,-121.762460,15.348,32.992,NaN,NaN
20040326,013334,264803,30.759390,-121.763900,15.365,33.000,NaN,NaN
20040326,013404,264834,30.758520,-121.765430,15.384,33.006,NaN,NaN
20040326,013435,264865,30.757670,-121.766930,15.402,33.011,NaN,NaN
20040326,013505,264894,30.756790,-121.768410,15.422,33.013,NaN,NaN
20040326,013535,264925,30.755940,-121.769900,15.416,33.016,NaN,NaN
20040326,013604,264954,30.755050,-121.771400,15.402,33.018,NaN,NaN
20040326,013634,264983,30.754230,-121.772840,15.400,33.019,NaN,NaN
20040326,013704,265014,30.753330,-121.774370,15.397,33.021,NaN,NaN
20040326,013734,265044,30.752500,-121.775820,15.402,33.021,NaN,NaN
20040326,013804,265074,30.751640,-121.777310,15.400,33.023,NaN,NaN
20040326,013835,265105,30.750750,-121.778850,15.409,33.024,NaN,NaN
20040326,013905,265135,30.749870,-121.780320,15.417,33.024,NaN,NaN
20040326,013935,265165,30.749020,-121.781780,15.427,33.024,NaN,NaN
20040326,014005,265195,30.748180,-121.783290,15.433,33.024,NaN,NaN
20040326,014035,265224,30.747320,-121.784790,15.442,33.025,NaN,NaN
20040326,014105,265255,30.746470,-121.786300,15.439,33.025,NaN,NaN
20040326,014135,265285,30.745620,-121.787800,15.440,33.025,NaN,NaN
20040326,014205,265315,30.744760,-121.789280,15.445,33.026,NaN,NaN
20040326,014235,265345,30.743920,-121.790800,15.451,33.026,NaN,NaN
20040326,014305,265375,30.743080,-121.792300,15.454,33.027,NaN,NaN
20040326,014335,265405,30.742220,-121.793800,15.455,33.027,NaN,NaN
20040326,014405,265435,30.741390,-121.795290,15.452,33.027,NaN,NaN
20040326,014435,265465,30.740520,-121.796790,15.453,33.028,NaN,NaN
20040326,014505,265495,30.739670,-121.798310,15.445,33.028,NaN,NaN
20040326,014535,265525,30.738800,-121.799810,15.445,33.028,NaN,NaN
20040326,014605,265555,30.737970,-121.801330,15.447,33.028,NaN,NaN
20040326,014635,265585,30.737100,-121.802850,15.449,33.029,NaN,NaN
20040326,014705,265615,30.736260,-121.804380,15.450,33.029,NaN,NaN
20040326,014735,265645,30.735400,-121.805910,15.454,33.030,NaN,NaN
20040326,014805,265675,30.734530,-121.807420,15.459,33.031,NaN,NaN
20040326,014836,265706,30.733670,-121.808980,15.472,33.031,NaN,NaN
20040326,014905,265734,30.732880,-121.810440,15.470,33.032,NaN,NaN
20040326,014935,265765,30.732030,-121.811950,15.474,33.033,NaN,NaN
20040326,015005,265795,30.731200,-121.813470,15.481,33.034,NaN,NaN
20040326,015035,265825,30.730350,-121.814990,15.487,33.032,NaN,NaN
20040326,015105,265855,30.729510,-121.816510,15.488,33.035,NaN,NaN
20040326,015135,265885,30.728650,-121.818030,15.489,33.035,NaN,NaN
20040326,015205,265915,30.727820,-121.819560,15.482,33.035,NaN,NaN
20040326,015235,265945,30.726980,-121.821070,15.481,33.035,NaN,NaN
20040326,015305,265975,30.726140,-121.822590,15.480,33.035,NaN,NaN
20040326,015335,266005,30.725290,-121.824100,15.480,33.035,NaN,NaN
20040326,015405,266035,30.724440,-121.825600,15.482,33.036,NaN,NaN
20040326,015435,266064,30.723600,-121.827110,15.490,33.035,NaN,NaN
20040326,015505,266095,30.722770,-121.828640,15.490,33.036,NaN,NaN
20040326,015535,266125,30.721930,-121.830160,15.493,33.036,NaN,NaN
20040326,015605,266155,30.721120,-121.831680,15.497,33.037,NaN,NaN
20040326,015635,266185,30.720290,-121.833180,15.506,33.037,NaN,NaN
20040326,015705,266215,30.719470,-121.834710,15.513,33.037,NaN,NaN
20040326,015735,266244,30.718710,-121.836260,15.511,33.037,NaN,NaN
20040326,015805,266275,30.717910,-121.837780,15.519,33.037,NaN,NaN
20040326,015835,266305,30.717160,-121.839330,15.515,33.037,NaN,NaN
20040326,015905,266335,30.716430,-121.840900,15.509,33.037,NaN,NaN
20040326,015935,266365,30.715680,-121.842480,15.498,33.037,NaN,NaN
20040326,020005,266395,30.714950,-121.844060,15.488,33.037,NaN,NaN
20040326,020035,266425,30.714220,-121.845640,15.478,33.037,NaN,NaN
20040326,020105,266455,30.713500,-121.847220,15.475,33.037,NaN,NaN
20040326,020135,266485,30.712770,-121.848810,15.470,33.037,NaN,NaN
20040326,020205,266515,30.712020,-121.850380,15.470,33.037,NaN,NaN
20040326,020235,266545,30.711280,-121.851970,15.466,33.037,NaN,NaN
20040326,020305,266574,30.710560,-121.853560,15.465,33.037,NaN,NaN
20040326,020335,266605,30.709830,-121.855140,15.468,33.038,NaN,NaN
20040326,020406,266636,30.709100,-121.856730,15.465,33.037,NaN,NaN
20040326,020435,266665,30.708370,-121.858320,15.465,33.037,NaN,NaN
20040326,020505,266695,30.707630,-121.859930,15.465,33.037,NaN,NaN
20040326,020535,266725,30.706920,-121.861520,15.465,33.037,NaN,NaN
20040326,020605,266755,30.706180,-121.863110,15.464,33.037,NaN,NaN
20040326,020635,266785,30.705450,-121.864690,15.473,33.037,NaN,NaN
20040326,020705,266815,30.704740,-121.866290,15.470,33.038,NaN,NaN
20040326,020735,266845,30.703990,-121.867860,15.476,33.037,NaN,NaN
20040326,020805,266875,30.703260,-121.869450,15.475,33.037,NaN,NaN
20040326,020835,266905,30.702560,-121.871040,15.473,33.037,NaN,NaN
20040326,020905,266935,30.701810,-121.872620,15.478,33.038,NaN,NaN
20040326,020935,266965,30.701080,-121.874210,15.486,33.037,NaN,NaN
20040326,021005,266995,30.700370,-121.875800,15.480,33.037,NaN,NaN
20040326,021035,267025,30.699650,-121.877380,15.487,33.037,NaN,NaN
20040326,021105,267055,30.698910,-121.878950,15.487,33.036,NaN,NaN
20040326,021135,267084,30.698210,-121.880540,15.481,33.034,NaN,NaN
20040326,021205,267115,30.697500,-121.882100,15.473,33.036,NaN,NaN
20040326,021235,267145,30.696780,-121.883680,15.473,33.035,NaN,NaN
20040326,021305,267175,30.696060,-121.885270,15.469,33.035,NaN,NaN
20040326,021335,267205,30.695330,-121.886840,15.466,33.035,NaN,NaN
20040326,021405,267235,30.694630,-121.888430,15.464,33.033,NaN,NaN
20040326,021435,267265,30.693920,-121.890020,15.458,33.032,NaN,NaN
20040326,021505,267295,30.693210,-121.891610,15.450,33.030,NaN,NaN
20040326,021535,267325,30.692480,-121.893190,15.439,33.029,NaN,NaN
20040326,021605,267355,30.691760,-121.894780,15.436,33.028,NaN,NaN
20040326,021635,267385,30.691040,-121.896350,15.428,33.026,NaN,NaN
20040326,021705,267414,30.690340,-121.897940,15.422,33.025,NaN,NaN
20040326,021735,267445,30.689630,-121.899500,15.410,33.024,NaN,NaN
20040326,021805,267475,30.688940,-121.901080,15.407,33.024,NaN,NaN
20040326,021835,267505,30.688260,-121.902650,15.399,33.022,NaN,NaN
20040326,021905,267535,30.687550,-121.904210,15.399,33.021,NaN,NaN
20040326,021935,267565,30.686850,-121.905790,15.392,33.020,NaN,NaN
20040326,022005,267594,30.686150,-121.907330,15.392,33.018,NaN,NaN
20040326,022035,267625,30.685460,-121.908910,15.389,33.017,NaN,NaN
20040326,022105,267655,30.684750,-121.910480,15.380,33.016,NaN,NaN
20040326,022135,267685,30.684050,-121.912060,15.375,33.016,NaN,NaN
20040326,022205,267715,30.683350,-121.913640,15.375,33.015,NaN,NaN
20040326,022235,267745,30.682660,-121.915220,15.372,33.015,NaN,NaN
20040326,022305,267775,30.681950,-121.916800,15.372,33.014,NaN,NaN
20040326,022335,267805,30.681250,-121.918380,15.366,33.015,NaN,NaN
20040326,022405,267835,30.680560,-121.919960,15.364,33.015,NaN,NaN
20040326,022435,267865,30.679860,-121.921530,15.363,33.014,NaN,NaN
20040326,022505,267895,30.679150,-121.923080,15.354,33.015,NaN,NaN
20040326,022535,267924,30.678450,-121.924640,15.352,33.015,NaN,NaN
20040326,022605,267955,30.677750,-121.926220,15.351,33.016,NaN,NaN
20040326,022635,267985,30.677050,-121.927790,15.352,33.016,NaN,NaN
20040326,022705,268015,30.676350,-121.929370,15.350,33.016,NaN,NaN
20040326,022736,268046,30.675610,-121.931060,15.353,33.016,NaN,NaN
20040326,022806,268076,30.674920,-121.932630,15.360,33.016,NaN,NaN
20040326,022836,268106,30.674230,-121.934190,15.361,33.015,NaN,NaN
20040326,022906,268136,30.673560,-121.935700,15.351,33.015,NaN,NaN
20040326,022936,268166,30.672870,-121.937240,15.344,33.007,NaN,NaN
20040326,023006,268196,30.672170,-121.938800,15.328,33.013,NaN,NaN
20040326,023036,268226,30.671430,-121.940410,15.320,33.013,NaN,NaN
20040326,023106,268256,30.670720,-121.941960,15.307,33.011,NaN,NaN
20040326,023136,268286,30.670020,-121.943520,15.308,33.011,NaN,NaN
20040326,023206,268316,30.669280,-121.945060,15.301,33.011,NaN,NaN
20040326,023236,268345,30.668580,-121.946620,15.297,33.010,NaN,NaN
20040326,023306,268376,30.667870,-121.948180,15.293,33.009,NaN,NaN
20040326,023336,268406,30.667190,-121.949680,15.284,33.008,NaN,NaN
20040326,023406,268436,30.666440,-121.951300,15.273,33.007,NaN,NaN
20040326,023436,268466,30.665740,-121.952870,15.266,33.007,NaN,NaN
20040326,023506,268496,30.665060,-121.954390,15.268,33.007,NaN,NaN
20040326,023536,268526,30.664350,-121.955970,15.266,33.006,NaN,NaN
20040326,023606,268556,30.663610,-121.957600,15.264,33.006,NaN,NaN
20040326,023636,268586,30.662940,-121.959100,15.262,33.005,NaN,NaN
20040326,023706,268616,30.662210,-121.960710,15.259,33.003,NaN,NaN
20040326,023737,268647,30.661510,-121.962270,15.252,33.002,NaN,NaN
20040326,023806,268675,30.660830,-121.963760,15.246,33.002,NaN,NaN
20040326,023836,268706,30.660140,-121.965340,15.242,33.000,NaN,NaN
20040326,023907,268737,30.659410,-121.966960,15.229,32.997,NaN,NaN
20040326,023936,268766,30.658720,-121.968450,15.216,32.995,NaN,NaN
20040326,024006,268796,30.658030,-121.970030,15.208,32.992,NaN,NaN
20040326,024036,268826,30.657350,-121.971600,15.195,32.991,NaN,NaN
20040326,024106,268855,30.656650,-121.973140,15.183,32.989,NaN,NaN
20040326,024136,268886,30.655960,-121.974680,15.175,32.986,NaN,NaN
20040326,024206,268916,30.655280,-121.976230,15.159,32.984,NaN,NaN
20040326,024236,268946,30.654590,-121.977800,15.145,32.981,NaN,NaN
20040326,024306,268976,30.653880,-121.979420,15.132,32.980,NaN,NaN
20040326,024336,269006,30.653200,-121.980930,15.121,32.978,NaN,NaN
20040326,024406,269036,30.652520,-121.982490,15.113,32.976,NaN,NaN
20040326,024436,269066,30.651810,-121.984070,15.111,32.975,NaN,NaN
20040326,024507,269096,30.651110,-121.985690,15.100,32.974,NaN,NaN
20040326,024536,269126,30.650430,-121.987210,15.098,32.974,NaN,NaN
20040326,024606,269156,30.649690,-121.988810,15.102,32.974,NaN,NaN
20040326,024637,269187,30.649010,-121.990370,15.103,32.974,NaN,NaN
20040326,024706,269216,30.648340,-121.991950,15.103,32.972,NaN,NaN
20040326,024736,269246,30.647640,-121.993520,15.095,32.970,NaN,NaN
20040326,024806,269276,30.646980,-121.995030,15.087,32.969,NaN,NaN
20040326,024836,269306,30.646250,-121.996660,15.089,32.967,NaN,NaN
20040326,024907,269337,30.645550,-121.998240,15.074,32.966,NaN,NaN
20040326,024936,269366,30.644890,-121.999750,15.070,32.963,NaN,NaN
20040326,025006,269396,30.644190,-122.001310,15.065,32.960,NaN,NaN
20040326,025036,269426,30.643470,-122.002930,15.065,32.959,NaN,NaN
20040326,025106,269456,30.642770,-122.004410,15.059,32.958,NaN,NaN
20040326,025137,269487,30.642050,-122.006020,15.061,32.957,NaN,NaN
20040326,025207,269517,30.641330,-122.007580,15.057,32.956,NaN,NaN
20040326,025236,269546,30.640630,-122.009150,15.053,32.955,NaN,NaN
20040326,025306,269576,30.639880,-122.010700,15.043,32.952,NaN,NaN
20040326,025336,269606,30.639140,-122.012240,15.026,32.948,NaN,NaN
20040326,025407,269637,30.638380,-122.013760,15.022,32.947,NaN,NaN
20040326,025437,269667,30.637640,-122.015310,15.012,32.946,NaN,NaN
20040326,025507,269697,30.636870,-122.016860,15.009,32.946,NaN,NaN
20040326,025537,269727,30.636150,-122.018390,15.008,32.946,NaN,NaN